Torna al catalogo

STARLINK-31552

AttivoComunicazioniVLEO
NORAD 59356·PAYLOAD·🇺🇸 United States

Lanciato Mar 31, 2024 da Cape Canaveral Space Force Station

Loading…

Prossimi Passaggi (prossime 24 ore)

TLE

AggiornatoSource: CelesTrak SupGP

Epoca: Sep 15, 2026, 02:53 UTC

1 59356C 24060J   26258.12062500 -.00010381  00000+0 -37605-3 0  2585
2 59356  43.0010 270.4086 0001300 263.3520 320.3611 15.27579577    12

Traccia STARLINK-31552 in tempo reale con AllMySat

Download on the App Store